Location: Asheville, NC
(35.6000°N, 82.5500°W)
Time: 11:02:05
(UTC-04:00)

Vanguard 1 Rocket - Pass Details

Date: 18 February 2018
Orbit: 652 x 4225 km, 34.3° (Epoch: 24 May)

Event Time Altitude Azimuth Distance (km) Brightness Sun altitude
Rises 20:51:04 0° 201° (SSW) 5,780 11.6 -32.3°
Reaches altitude 10° 20:54:50 10° 192° (SSW) 5,218 11.2 -33.0°
Enters shadow 21:06:19 34° 148° (SSE) 4,635 10.5 -35.3°
Maximum altitude 21:09:32 35° 132° (SE) 4,790 - -36.0°
Drops below altitude 10° 21:30:30 10° 78° (ENE) 7,428 - -40.1°
Sets 21:37:12 0° 71° (ENE) 8,435 - -41.4°
